Location: Unspecified
(47.5840°N, 122.3000°W)
Time: 03:06:53
(UTC+00:00)

COSMO-SKYMED 1 - Pass Details

Date: 09 December 2025
Orbit: 578 x 580 km, 97.9° (Epoch: 24 January)

Event Time Altitude Azimuth Distance (km) Brightness Sun altitude
Rises 13:53:30 0° 178° (S) 2,792 6.1 -18.0°
Reaches altitude 10° 13:55:41 10° 184° (S) 1,898 5.2 -17.7°
Maximum altitude 13:59:42 50° 260° (W) 746 2.6 -17.0°
Enters shadow 14:01:51 25° 325° (NW) 1,203 3.6 -16.7°
